Regional Weather Roundup
Issued by NWS Kansas City/Pleasant Hill, MO

Home | Current Version | Previous Version | Graphics & Text | Print | Product List | Glossary Off
Versions: 1 2 3 4 5 6 7 8 9 10 11 12 13 14 15 16 17 18 19 20 21 22 23 24 25 26 27 28 29 30 31 32 33 34 35 36 37 38 39 40 41 42 43 44 45 46 47 48 49 50

000
ASUS43 KEAX 062310
RWREAX

WEATHER ROUNDUP FOR EASTERN KANSAS AND NORTHWEST MISSOURI
NATIONAL WEATHER SERVICE KANSAS CITY/PLEASANT HILL MO
500 PM CST SAT FEB 06 2016

KSZ040-057-103>105-MOZ028-029-037-043-070000-
...KANSAS CITY METROPOLITAN AREA...

CITY           SKY/WX    TMP DP  RH WIND       PRES   REMARKS
K.C. INTL      PTCLDY    46  30  53 SW15      30.18F
K.C. DOWNTOWN  CLEAR     49  28  44 SW13      30.19F
LEES SUMMIT    CLEAR     47  29  49 SW14      30.19F
OLATHE - IXD   CLEAR     47  29  49 SW14      30.21F
OLATHE - OJC   CLEAR     46  28  49 SW12      30.20F
LAWRENCE       CLEAR     48  28  46 SW13      30.20F

$$

MOZ001>008-011>017-020>025-030>033-038>040-044>046-053-054-070000-
...NORTHERN AND CENTRAL MISSOURI...

CITY           SKY/WX    TMP DP  RH WIND       PRES   REMARKS
ST. JOSEPH     CLEAR     47  30  51 SW15      30.17F
MOSBY          CLEAR     46  30  53 SW9G17    30.19S
WARRENSBURG    CLEAR     46  30  53 SW8       30.20F
WHITEMAN AFB   CLEAR     48  28  46 W13       30.19F
CLINTON          N/A     48  30  49 SW8       30.22F
SEDALIA        CLEAR     50  27  40 SW12      30.21F
WARSAW         NOT AVBL
CHILLICOTHE      N/A     48  31  51 SW8       30.18F
KIRKSVILLE     CLEAR     45  28  51 VRB6      30.16F

$$

MOZ041-047>049-056>058-063>065-088>090-097-070000-
...EASTERN AND SOUTHERN MISSOURI...

CITY           SKY/WX    TMP DP  RH WIND       PRES   REMARKS
ST. LOUIS INTL PTCLDY    55  25  31 SW10      30.20F
SPIRIT OF STL  CLEAR     53  28  38 SW7       30.19F
COLUMBIA       CLEAR     51  27  39 W12       30.19S
JEFFERSON CITY PTCLDY    54  27  35 W10       30.20S
ROLLA          PTCLDY    51  27  39 SW12      30.19F
OSAGE BEACH    PTCLDY    52  28  40 SW12      30.22S
SPRINGFIELD    PTCLDY    51  26  37 SW8       30.22F
BRANSON        PTCLDY    52  19  28 SW8       30.25F
JOPLIN         PTCLDY    50  31  48 SW13      30.26S
WEST PLAINS    CLEAR     51  17  26 SW8       30.25F

$$

IAZ060-094-KSZ022-034>040-054-083-096-NEZ052-066-093-070000-
...KANSAS...SOUTHEAST NEBRASKA AND IOWA...

CITY           SKY/WX    TMP DP  RH WIND       PRES   REMARKS
TOPEKA         CLEAR     49  27  42 SW10      30.19F
MANHATTAN      CLEAR     49  27  42 SW13      30.17F
EMPORIA        CLEAR     47  27  45 SW10      30.20F
CHANUTE        CLEAR     50  29  44 SW13      30.23F
WICHITA        PTCLDY    50  25  37 SW13      30.22F
OMAHA          CLOUDY    41  27  57 S16G23    30.06F WCI  33
LINCOLN        CLOUDY    37  24  59 SW15      30.07F WCI  28
FALLS CITY     CLEAR     46  27  47 SW12      30.14F
LAMONI         CLEAR     40  32  73 SW10      30.13F WCI  33
DES MOINES     PTCLDY    37  29  72 S10       30.10F WCI  30

$$




USA.gov is the U.S. government's official web portal to all federal, state and local government web resources and services.